Weather Service Report


955 
ASUS44 KOUN 281210
RWROK 

WEATHER ROUNDUP FOR OKLAHOMA
NATIONAL WEATHER SERVICE NORMAN OK
700 AM CDT TUE APR 28 2015

NOTE: "FAIR" INDICATES FEW OR NO CLOUDS BELOW 12,000 FEET WITH NO
      SIGNIFICANT WEATHER AND/OR OBSTRUCTIONS TO VISIBILITY.

OKZ001>007-009>012-014-015-017-281300-
NORTHWEST OKLAHOMA AND THE PANHANDLE
  
CITY           SKY/WX    TMP DP  RH WIND       PRES   REMARKS
GAGE           MOCLDY    43  40  89 N6        30.18R                  
6HR MIN TEMP:  43; 6HR MAX TEMP:  45;                                

GUYMON         CLEAR     37  33  85 N7        30.23R WCI  32          
ENID/WOODRING  MOCLDY    48  48 100 W3        30.14R FOG              
$$

OKZ016-021>023-033>039-044-045-281300-
SOUTHWEST OKLAHOMA
  
CITY           SKY/WX    TMP DP  RH WIND       PRES   REMARKS
LAWTON/REGL    CLOUDY    51  46  83 N16       30.11R                  
6HR MIN TEMP:  50; 6HR MAX TEMP:  51; 6HR PCP: TRACE;                

LAWTON/FT SILL CLOUDY    49  47  92 N13       30.10R                  
FREDERICK      CLOUDY    50  47  89 N13       30.10R                  
CLINTON        LGT RAIN  47  45  93 N9        30.16S                  
HOBART         CLOUDY    48  46  93 N14       30.14R                  
ALTUS AFB      CLOUDY    49  48  96 N16       30.13R                  
$$

OKZ018>020-024>031-281300-
CENTRAL OKLAHOMA
  
CITY           SKY/WX    TMP DP  RH WIND       PRES   REMARKS
OKLAHOMA CITY  CLOUDY    51  45  79 N9        30.12R                  
6HR MIN TEMP:  49; 6HR MAX TEMP:  51; 6HR PCP: TRACE;                

OKC/WILEY POST LGT RAIN  50  46  86 N7        30.14R                  
OKC/TINKER AFB DRIZZLE   50  45  81 NE12      30.11R                  
STILLWATER     LGT RAIN  49  47  93 W3        30.13R                  
GUTHRIE        LGT RAIN  49  47  93 NE6       30.14R                  
$$

OKZ008-013-054>072-281300-
NORTHEAST OKLAHOMA
  
CITY           SKY/WX    TMP DP  RH WIND       PRES   REMARKS
TULSA          CLOUDY    51  48  89 NW10      30.10R                  
6HR MIN TEMP:  51; 6HR MAX TEMP:  52; 6HR PCP:  0.11;                

TULSA/JONES    CLOUDY    50  48  93 MISG      30.12R                  
PONCA CITY     CLOUDY    49  48  97 W5        30.14R                  
BARTLESVILLE   CLOUDY    49  45  86 CALM      30.13R                  
MUSKOGEE       RAIN      50  48  93 NW3       30.11R FOG              
$$

OKZ032-040>043-046>053-073>077-281300-
SOUTH CENTRAL/SOUTHEAST OKLAHOMA
  
CITY           SKY/WX    TMP DP  RH WIND       PRES   REMARKS
ARDMORE/DWNTWN DRIZZLE   52  45  76 NE13      30.06R                  
MCALESTER      MOCLDY    52  49  89 N8        30.07R                  
$$


Return to Home page


Western Regional Climate Center, wrcc@dri.edu